Year,Month,Day,Hour,Minute,Value (Times are PST for temperature in C)
2008,02,18,10,02,4.60
2008,02,18,10,03,4.60
2008,02,18,10,04,4.60
2008,02,18,10,05,4.60
2008,02,18,10,06,4.70
2008,02,18,10,07,4.70
2008,02,18,10,08,4.80
2008,02,18,10,09,4.80
2008,02,18,10,10,4.90
2008,02,18,10,11,5.00
2008,02,18,10,12,5.10
2008,02,18,10,13,5.10
2008,02,18,10,14,5.20
2008,02,18,10,15,5.30
2008,02,18,10,16,5.40
2008,02,18,10,17,5.50
2008,02,18,10,18,5.60
2008,02,18,10,19,5.70
2008,02,18,10,20,5.80
2008,02,18,10,21,5.80
2008,02,18,10,22,5.80
2008,02,18,10,23,5.90
2008,02,18,10,24,5.90
2008,02,18,10,25,5.80
2008,02,18,10,26,5.80
2008,02,18,10,27,5.80
2008,02,18,10,28,5.90
2008,02,18,10,29,5.90
2008,02,18,10,30,5.90
2008,02,18,10,31,5.90
2008,02,18,10,32,5.90
2008,02,18,10,33,5.80
2008,02,18,10,34,5.80
2008,02,18,10,35,5.80
2008,02,18,10,36,5.80
2008,02,18,10,37,5.70
2008,02,18,10,38,5.70
2008,02,18,10,39,5.70
2008,02,18,10,40,5.70
2008,02,18,10,41,5.70
2008,02,18,10,42,5.70
2008,02,18,10,43,5.80
2008,02,18,10,44,5.80
2008,02,18,10,45,5.90
2008,02,18,10,46,5.90
2008,02,18,10,47,5.90
2008,02,18,10,48,5.90
2008,02,18,10,49,5.90
2008,02,18,10,50,5.80
2008,02,18,10,51,5.80
2008,02,18,10,52,5.70
2008,02,18,10,53,5.70
2008,02,18,10,54,5.70
2008,02,18,10,55,5.70
2008,02,18,10,56,5.70
2008,02,18,10,57,5.70
2008,02,18,10,58,5.70
2008,02,18,10,59,5.70
2008,02,18,11,00,5.70
2008,02,18,11,01,5.70
2008,02,18,11,02,5.70
2008,02,18,11,03,5.80
2008,02,18,11,04,5.80
2008,02,18,11,05,5.90
2008,02,18,11,06,5.90
2008,02,18,11,07,5.90
2008,02,18,11,08,5.90
2008,02,18,11,09,5.90
2008,02,18,11,10,5.80
2008,02,18,11,11,5.80
2008,02,18,11,12,5.70
2008,02,18,11,13,5.70
2008,02,18,11,14,5.70
2008,02,18,11,15,5.80
2008,02,18,11,16,5.80
2008,02,18,11,17,5.80
2008,02,18,11,18,5.80
2008,02,18,11,19,5.90
2008,02,18,11,20,5.90
2008,02,18,11,21,5.90
2008,02,18,11,22,5.90
2008,02,18,11,23,5.90
2008,02,18,11,24,5.90
2008,02,18,11,25,5.90
2008,02,18,11,26,5.90
2008,02,18,11,27,6.00
2008,02,18,11,28,6.00
2008,02,18,11,29,6.00
2008,02,18,11,30,6.10
2008,02,18,11,31,6.10
2008,02,18,11,32,6.10
2008,02,18,11,33,6.20
2008,02,18,11,34,6.20
2008,02,18,11,35,6.20
2008,02,18,11,36,6.30
2008,02,18,11,37,6.30
2008,02,18,11,38,6.30
2008,02,18,11,39,6.40
2008,02,18,11,40,6.40
2008,02,18,11,41,6.40
2008,02,18,11,42,6.40
2008,02,18,11,43,6.40
2008,02,18,11,44,6.40
2008,02,18,11,45,6.50
2008,02,18,11,46,6.60
2008,02,18,11,47,6.60
2008,02,18,11,48,6.70
2008,02,18,11,49,6.70
2008,02,18,11,50,6.80
2008,02,18,11,51,6.80
2008,02,18,11,52,6.80
2008,02,18,11,53,6.80
2008,02,18,11,54,6.90
2008,02,18,11,55,6.90
2008,02,18,11,56,7.00
2008,02,18,11,57,7.10
2008,02,18,11,58,7.10
2008,02,18,11,59,7.20
2008,02,18,12,00,7.30
2008,02,18,12,01,7.30
2008,02,18,12,02,7.30
2008,02,18,12,03,7.30
2008,02,18,12,04,7.30
2008,02,18,12,05,7.30
2008,02,18,12,06,7.30
2008,02,18,12,07,7.30
2008,02,18,12,08,7.30
2008,02,18,12,09,7.30
2008,02,18,12,10,7.30
2008,02,18,12,11,7.30
2008,02,18,12,12,7.30
2008,02,18,12,13,7.30
2008,02,18,12,14,7.30
2008,02,18,12,15,7.30
2008,02,18,12,16,7.30
2008,02,18,12,17,7.30
2008,02,18,12,18,7.30
2008,02,18,12,19,7.30
2008,02,18,12,20,7.30
2008,02,18,12,21,7.30
2008,02,18,12,22,7.30
2008,02,18,12,23,7.30
2008,02,18,12,24,7.30
2008,02,18,12,25,7.30
2008,02,18,12,26,7.30
2008,02,18,12,27,7.30
2008,02,18,12,28,7.30
2008,02,18,12,29,7.30
2008,02,18,12,30,7.30
2008,02,18,12,31,7.30
2008,02,18,12,32,7.20
2008,02,18,12,33,7.30
2008,02,18,12,34,7.30
2008,02,18,12,35,7.30
2008,02,18,12,36,7.40
2008,02,18,12,37,7.40
2008,02,18,12,38,7.50
2008,02,18,12,39,7.50
2008,02,18,12,40,7.60
2008,02,18,12,41,7.60
2008,02,18,12,42,7.60
2008,02,18,12,43,7.60
2008,02,18,12,44,7.60
2008,02,18,12,45,7.70
2008,02,18,12,46,7.80
2008,02,18,12,47,7.80
2008,02,18,12,48,7.80
2008,02,18,12,49,7.90
2008,02,18,12,50,8.00
2008,02,18,12,51,8.00
2008,02,18,12,52,8.10
2008,02,18,12,53,8.10
2008,02,18,12,54,8.10
2008,02,18,12,55,8.20
2008,02,18,12,56,8.10
2008,02,18,12,57,8.10
2008,02,18,12,58,8.20
2008,02,18,12,59,8.20
2008,02,18,13,00,8.20
2008,02,18,13,01,8.30
2008,02,18,13,02,8.30
2008,02,18,13,03,8.40
2008,02,18,13,04,8.40
2008,02,18,13,05,8.50
2008,02,18,13,06,8.60
2008,02,18,13,07,8.70
2008,02,18,13,08,8.70
2008,02,18,13,09,8.70
2008,02,18,13,10,8.70
2008,02,18,13,11,8.60
2008,02,18,13,12,8.50
2008,02,18,13,13,8.50
2008,02,18,13,14,8.60
2008,02,18,13,15,8.60
2008,02,18,13,16,8.70
2008,02,18,13,17,8.70
2008,02,18,13,18,8.70
2008,02,18,13,19,8.70
2008,02,18,13,20,8.70
2008,02,18,13,21,8.70
2008,02,18,13,22,8.70
2008,02,18,13,23,8.60
2008,02,18,13,24,8.60
2008,02,18,13,25,8.60
2008,02,18,13,26,8.60
2008,02,18,13,27,8.60
2008,02,18,13,28,8.70
2008,02,18,13,29,8.70
2008,02,18,13,30,8.70
2008,02,18,13,31,8.70
2008,02,18,13,32,8.70
2008,02,18,13,33,8.70
2008,02,18,13,34,8.70
2008,02,18,13,35,8.80
2008,02,18,13,36,8.80
2008,02,18,13,37,8.90
2008,02,18,13,38,8.90
2008,02,18,13,39,8.90
2008,02,18,13,40,8.90
2008,02,18,13,41,8.90
2008,02,18,13,42,8.90
2008,02,18,13,43,9.00
2008,02,18,13,44,9.10
2008,02,18,13,45,9.10
2008,02,18,13,46,9.20
2008,02,18,13,47,9.20
2008,02,18,13,48,9.30
2008,02,18,13,49,9.30
2008,02,18,13,50,9.30
2008,02,18,13,51,9.30
2008,02,18,13,52,9.30
2008,02,18,13,53,9.20
2008,02,18,13,54,9.20
2008,02,18,13,55,9.20
2008,02,18,13,56,9.20
2008,02,18,13,57,9.20
2008,02,18,13,58,9.20
2008,02,18,13,59,9.20
2008,02,18,14,00,9.20
2008,02,18,14,01,9.20
2008,02,18,14,02,9.30
2008,02,18,14,03,9.30
2008,02,18,14,04,9.30
2008,02,18,14,05,9.30
2008,02,18,14,06,9.30
2008,02,18,14,07,9.30
2008,02,18,14,08,9.30
2008,02,18,14,09,9.30
2008,02,18,14,10,9.30
2008,02,18,14,11,9.30
2008,02,18,14,12,9.30
2008,02,18,14,13,9.30
2008,02,18,14,14,9.30
2008,02,18,14,15,9.40
2008,02,18,14,16,9.40
2008,02,18,14,17,9.40
2008,02,18,14,18,9.40
2008,02,18,14,19,9.40
2008,02,18,14,20,9.50
2008,02,18,14,21,9.50
2008,02,18,14,22,9.50
2008,02,18,14,23,9.60
2008,02,18,14,24,9.70
2008,02,18,14,25,9.70
2008,02,18,14,26,9.70
2008,02,18,14,27,9.70
2008,02,18,14,28,9.70
2008,02,18,14,29,9.70
2008,02,18,14,30,9.70
2008,02,18,14,31,9.70
2008,02,18,14,32,9.80
2008,02,18,14,33,9.80
2008,02,18,14,34,9.80
2008,02,18,14,35,9.80
2008,02,18,14,36,9.80
2008,02,18,14,37,9.80
2008,02,18,14,38,9.80
2008,02,18,14,39,9.80
2008,02,18,14,40,9.80
2008,02,18,14,41,9.80
2008,02,18,14,42,9.80
2008,02,18,14,43,9.90
2008,02,18,14,44,9.90
2008,02,18,14,45,9.90
2008,02,18,14,46,10.00
2008,02,18,14,47,10.10
2008,02,18,14,48,10.10
2008,02,18,14,49,10.00
2008,02,18,14,50,9.90
2008,02,18,14,51,9.90
2008,02,18,14,52,9.90
2008,02,18,14,53,9.90
2008,02,18,14,54,9.90
2008,02,18,14,55,9.90
2008,02,18,14,56,9.90
2008,02,18,14,57,9.90
2008,02,18,14,58,9.90
2008,02,18,14,59,9.90
2008,02,18,15,00,9.90
2008,02,18,15,01,9.90
2008,02,18,15,02,9.90
2008,02,18,15,03,9.80
2008,02,18,15,04,9.80
2008,02,18,15,05,9.80
2008,02,18,15,06,9.80
2008,02,18,15,07,9.80
2008,02,18,15,08,9.70
2008,02,18,15,09,9.70
2008,02,18,15,10,9.70
2008,02,18,15,11,9.70
2008,02,18,15,12,9.70
2008,02,18,15,13,9.60
2008,02,18,15,14,9.60
2008,02,18,15,15,9.60
2008,02,18,15,16,9.60
2008,02,18,15,17,9.70
2008,02,18,15,18,9.70
2008,02,18,15,19,9.70
2008,02,18,15,20,9.60
2008,02,18,15,21,9.60
2008,02,18,15,22,9.60
2008,02,18,15,23,9.60
2008,02,18,15,24,9.60
2008,02,18,15,25,9.70
2008,02,18,15,26,9.70
2008,02,18,15,27,9.70
2008,02,18,15,28,9.70
2008,02,18,15,29,9.70
2008,02,18,15,30,9.70
2008,02,18,15,31,9.70
2008,02,18,15,32,9.70
2008,02,18,15,33,9.70
2008,02,18,15,34,9.70
2008,02,18,15,35,9.70
2008,02,18,15,36,9.70
2008,02,18,15,37,9.70
2008,02,18,15,38,9.70
2008,02,18,15,39,9.70
2008,02,18,15,40,9.60
2008,02,18,15,41,9.60
2008,02,18,15,42,9.50
2008,02,18,15,43,9.50
2008,02,18,15,44,9.40
2008,02,18,15,45,9.40
2008,02,18,15,46,9.30
2008,02,18,15,47,9.30
2008,02,18,15,48,9.30
2008,02,18,15,49,9.20
2008,02,18,15,50,9.20
2008,02,18,15,51,9.30
2008,02,18,15,52,9.30
2008,02,18,15,53,9.20
2008,02,18,15,54,9.20
2008,02,18,15,55,9.20
2008,02,18,15,56,9.20
2008,02,18,15,57,9.20
2008,02,18,15,58,9.20
2008,02,18,15,59,9.20
2008,02,18,16,00,9.30
2008,02,18,16,01,9.30
2008,02,18,16,02,9.30
2008,02,18,16,03,9.30
2008,02,18,16,04,9.30
2008,02,18,16,05,9.30
2008,02,18,16,06,9.30
2008,02,18,16,07,9.20
2008,02,18,16,08,9.20
2008,02,18,16,09,9.20
2008,02,18,16,10,9.20
2008,02,18,16,11,9.20
2008,02,18,16,12,9.20
2008,02,18,16,13,9.10
2008,02,18,16,14,9.10
2008,02,18,16,15,9.10
2008,02,18,16,16,9.10
2008,02,18,16,17,9.00
2008,02,18,16,18,9.00
2008,02,18,16,19,9.00
2008,02,18,16,20,9.00
2008,02,18,16,21,8.90
2008,02,18,16,22,8.90
2008,02,18,16,23,8.90
2008,02,18,16,24,8.90
2008,02,18,16,25,8.90
2008,02,18,16,26,8.80
2008,02,18,16,27,8.80
2008,02,18,16,28,8.80
2008,02,18,16,29,8.70
2008,02,18,16,30,8.70
2008,02,18,16,31,8.70
2008,02,18,16,32,8.70
2008,02,18,16,33,8.70
2008,02,18,16,34,8.70
2008,02,18,16,35,8.70
2008,02,18,16,36,8.70
2008,02,18,16,37,8.70
2008,02,18,16,38,8.70
2008,02,18,16,39,8.70
2008,02,18,16,40,8.60
2008,02,18,16,41,8.60
2008,02,18,16,42,8.50
2008,02,18,16,43,8.50
2008,02,18,16,44,8.50
2008,02,18,16,45,8.40
2008,02,18,16,46,8.40
2008,02,18,16,47,8.40
2008,02,18,16,48,8.30
2008,02,18,16,49,8.30
2008,02,18,16,50,8.20
2008,02,18,16,51,8.20
2008,02,18,16,52,8.20
2008,02,18,16,53,8.20
2008,02,18,16,54,8.10
2008,02,18,16,55,8.10
2008,02,18,16,56,8.10
2008,02,18,16,57,8.00
2008,02,18,16,58,8.00
2008,02,18,16,59,8.00
2008,02,18,17,00,7.90
2008,02,18,17,01,7.90
2008,02,18,17,02,7.90
2008,02,18,17,03,7.80
2008,02,18,17,04,7.80
2008,02,18,17,05,7.80
2008,02,18,17,06,7.80
2008,02,18,17,07,7.70
2008,02,18,17,08,7.70
2008,02,18,17,09,7.60
2008,02,18,17,10,7.60
2008,02,18,17,11,7.50
2008,02,18,17,12,7.50
2008,02,18,17,13,7.40
2008,02,18,17,14,7.40
2008,02,18,17,15,7.30
2008,02,18,17,16,7.30
2008,02,18,17,17,7.30
2008,02,18,17,18,7.20
2008,02,18,17,19,7.20
2008,02,18,17,20,7.10
2008,02,18,17,21,7.10
2008,02,18,17,22,7.00
2008,02,18,17,23,7.00
2008,02,18,17,24,6.90
2008,02,18,17,25,6.90
2008,02,18,17,26,6.80
2008,02,18,17,27,6.80
2008,02,18,17,28,6.80
2008,02,18,17,29,6.70
2008,02,18,17,30,6.60
2008,02,18,17,31,6.50
2008,02,18,17,32,6.40
2008,02,18,17,33,6.40
2008,02,18,17,34,6.30
2008,02,18,17,35,6.30
2008,02,18,17,36,6.20
2008,02,18,17,37,6.20
2008,02,18,17,38,6.10
2008,02,18,17,39,6.00
2008,02,18,17,40,6.00
2008,02,18,17,41,5.90
2008,02,18,17,42,5.90
2008,02,18,17,43,5.80
2008,02,18,17,44,5.70
2008,02,18,17,45,5.70
2008,02,18,17,46,5.70
2008,02,18,17,47,5.60
2008,02,18,17,48,5.50
2008,02,18,17,49,5.50
2008,02,18,17,50,5.40
2008,02,18,17,51,5.30
2008,02,18,17,52,5.30
2008,02,18,17,53,5.30
2008,02,18,17,54,5.20
2008,02,18,17,55,5.10
2008,02,18,17,56,5.10
2008,02,18,17,57,5.10
2008,02,18,17,58,5.00
2008,02,18,17,59,4.90
2008,02,18,18,00,4.90
2008,02,18,18,01,4.80
2008,02,18,18,02,4.80
2008,02,18,18,03,4.70
2008,02,18,18,04,4.70
2008,02,18,18,05,4.60
2008,02,18,18,06,4.60
2008,02,18,18,07,4.60
2008,02,18,18,08,4.50
2008,02,18,18,09,4.50
2008,02,18,18,10,4.40
2008,02,18,18,11,4.40
2008,02,18,18,12,4.40
2008,02,18,18,13,4.30
2008,02,18,18,14,4.30
2008,02,18,18,15,4.30
2008,02,18,18,16,4.30
2008,02,18,18,17,4.20
2008,02,18,18,18,4.20
2008,02,18,18,19,4.20
2008,02,18,18,20,4.20
2008,02,18,18,21,4.20
2008,02,18,18,22,4.20
2008,02,18,18,23,4.20
2008,02,18,18,24,4.20
2008,02,18,18,25,4.10
2008,02,18,18,26,4.10
2008,02,18,18,27,4.10
2008,02,18,18,28,4.00
2008,02,18,18,29,4.00
2008,02,18,18,30,4.00
2008,02,18,18,31,3.90
2008,02,18,18,32,3.90
2008,02,18,18,33,3.90
2008,02,18,18,34,3.80
2008,02,18,18,35,3.80
2008,02,18,18,36,3.80
2008,02,18,18,37,3.80
2008,02,18,18,38,3.80
2008,02,18,18,39,3.70
2008,02,18,18,40,3.70
2008,02,18,18,41,3.70
2008,02,18,18,42,3.60
2008,02,18,18,43,3.60
2008,02,18,18,44,3.60
2008,02,18,18,45,3.60
2008,02,18,18,46,3.50
2008,02,18,18,47,3.50
2008,02,18,18,48,3.40
2008,02,18,18,49,3.40
2008,02,18,18,50,3.40
2008,02,18,18,51,3.30
2008,02,18,18,52,3.30
2008,02,18,18,53,3.30
2008,02,18,18,54,3.30
2008,02,18,18,55,3.30
2008,02,18,18,56,3.30
2008,02,18,18,57,3.30
2008,02,18,18,58,3.20
2008,02,18,18,59,3.20
2008,02,18,19,00,3.20
2008,02,18,19,01,3.20
2008,02,18,19,02,3.10
2008,02,18,19,03,3.10
2008,02,18,19,04,3.10
2008,02,18,19,05,3.10
2008,02,18,19,06,3.10
2008,02,18,19,07,3.00
2008,02,18,19,08,2.90
2008,02,18,19,09,2.90
2008,02,18,19,10,2.90
2008,02,18,19,11,2.90
2008,02,18,19,12,2.90
2008,02,18,19,13,2.90
2008,02,18,19,14,2.90
2008,02,18,19,15,2.80
2008,02,18,19,16,2.80
2008,02,18,19,17,2.80
2008,02,18,19,18,2.70
2008,02,18,19,19,2.70
2008,02,18,19,20,2.70
2008,02,18,19,21,2.70
2008,02,18,19,22,2.70
2008,02,18,19,23,2.70
2008,02,18,19,24,2.60
2008,02,18,19,25,2.60
2008,02,18,19,26,2.60
2008,02,18,19,27,2.50
2008,02,18,19,28,2.50
2008,02,18,19,29,2.50
2008,02,18,19,30,2.50
2008,02,18,19,31,2.40
2008,02,18,19,32,2.40
2008,02,18,19,33,2.40
2008,02,18,19,34,2.40
2008,02,18,19,35,2.40
2008,02,18,19,36,2.40
2008,02,18,19,37,2.40
2008,02,18,19,38,2.40
2008,02,18,19,39,2.40
2008,02,18,19,40,2.40
2008,02,18,19,41,2.40
2008,02,18,19,42,2.30
2008,02,18,19,43,2.30
2008,02,18,19,44,2.30
2008,02,18,19,45,2.30
2008,02,18,19,46,2.30
2008,02,18,19,47,2.20
2008,02,18,19,48,2.20
2008,02,18,19,49,2.20
2008,02,18,19,50,2.20
2008,02,18,19,51,2.20
2008,02,18,19,52,2.20
2008,02,18,19,53,2.20
2008,02,18,19,54,2.20
2008,02,18,19,55,2.20
2008,02,18,19,56,2.20
2008,02,18,19,57,2.10
2008,02,18,19,58,2.10
2008,02,18,19,59,2.10
2008,02,18,20,00,2.00
2008,02,18,20,01,2.00
2008,02,18,20,02,2.00
2008,02,18,20,03,2.00
2008,02,18,20,04,1.90
2008,02,18,20,05,1.90
2008,02,18,20,06,1.90
2008,02,18,20,07,1.90
2008,02,18,20,08,1.90
2008,02,18,20,09,1.90
2008,02,18,20,10,1.80
2008,02,18,20,11,1.80
2008,02,18,20,12,1.80
2008,02,18,20,13,1.80
2008,02,18,20,14,1.80
2008,02,18,20,15,1.80
2008,02,18,20,16,1.80
2008,02,18,20,17,1.80
2008,02,18,20,18,1.80
2008,02,18,20,19,1.80
2008,02,18,20,20,1.80
2008,02,18,20,21,1.80
2008,02,18,20,22,1.80
2008,02,18,20,23,1.80
2008,02,18,20,24,1.80
2008,02,18,20,25,1.80
2008,02,18,20,26,1.80
2008,02,18,20,27,1.80
2008,02,18,20,28,1.80
2008,02,18,20,29,1.80
2008,02,18,20,30,1.80
2008,02,18,20,31,1.80
2008,02,18,20,32,1.80
2008,02,18,20,33,1.80
2008,02,18,20,34,1.80
2008,02,18,20,35,1.80
2008,02,18,20,36,1.80
2008,02,18,20,37,1.80
2008,02,18,20,38,1.80
2008,02,18,20,39,1.80
2008,02,18,20,40,1.80
2008,02,18,20,41,1.80
2008,02,18,20,42,1.80
2008,02,18,20,43,1.80
2008,02,18,20,44,1.80
2008,02,18,20,45,1.80
2008,02,18,20,46,1.80
2008,02,18,20,47,1.80
2008,02,18,20,48,1.80
2008,02,18,20,49,1.80
2008,02,18,20,50,1.80
2008,02,18,20,51,1.80
2008,02,18,20,52,1.80
2008,02,18,20,53,1.70
2008,02,18,20,54,1.70
2008,02,18,20,55,1.70
2008,02,18,20,56,1.70
2008,02,18,20,57,1.60
2008,02,18,20,58,1.60
2008,02,18,20,59,1.60
2008,02,18,21,00,1.60
2008,02,18,21,01,1.60
2008,02,18,21,02,1.50
2008,02,18,21,03,1.50
2008,02,18,21,04,1.50
2008,02,18,21,05,1.50
2008,02,18,21,06,1.40
2008,02,18,21,07,1.40
2008,02,18,21,08,1.40
2008,02,18,21,09,1.40
2008,02,18,21,10,1.30
2008,02,18,21,11,1.30
2008,02,18,21,12,1.30
2008,02,18,21,13,1.30
2008,02,18,21,14,1.30
2008,02,18,21,15,1.30
2008,02,18,21,16,1.30
2008,02,18,21,17,1.30
2008,02,18,21,18,1.30
2008,02,18,21,19,1.30
2008,02,18,21,20,1.30
2008,02,18,21,21,1.30
2008,02,18,21,22,1.30
2008,02,18,21,23,1.30
2008,02,18,21,24,1.30
2008,02,18,21,25,1.30
2008,02,18,21,26,1.30
2008,02,18,21,27,1.30
2008,02,18,21,28,1.30
2008,02,18,21,29,1.30
2008,02,18,21,30,1.30
2008,02,18,21,31,1.30
2008,02,18,21,32,1.30
2008,02,18,21,33,1.30
2008,02,18,21,34,1.30
2008,02,18,21,35,1.30
2008,02,18,21,36,1.20
2008,02,18,21,37,1.20
2008,02,18,21,38,1.20
2008,02,18,21,39,1.10
2008,02,18,21,40,1.10
2008,02,18,21,41,1.10
2008,02,18,21,42,1.00
2008,02,18,21,43,1.00
2008,02,18,21,44,1.00
2008,02,18,21,45,1.00
2008,02,18,21,46,0.90
2008,02,18,21,47,0.90
2008,02,18,21,48,0.90
2008,02,18,21,49,0.90
2008,02,18,21,50,0.90
2008,02,18,21,51,0.90
2008,02,18,21,52,1.00
2008,02,18,21,53,0.90
2008,02,18,21,54,0.90
2008,02,18,21,55,0.90
2008,02,18,21,56,0.80
2008,02,18,21,57,0.80
2008,02,18,21,58,0.80
2008,02,18,21,59,0.80
2008,02,18,22,00,0.80
2008,02,18,22,01,0.80
2008,02,18,22,02,0.70
2008,02,18,22,03,0.70
2008,02,18,22,04,0.70
2008,02,18,22,05,0.70
2008,02,18,22,06,0.60
2008,02,18,22,07,0.60
2008,02,18,22,08,0.60
2008,02,18,22,09,0.60
2008,02,18,22,10,0.60
2008,02,18,22,11,0.60
2008,02,18,22,12,0.60
2008,02,18,22,13,0.60
2008,02,18,22,14,0.50
2008,02,18,22,15,0.50
2008,02,18,22,16,0.50
2008,02,18,22,17,0.60
2008,02,18,22,18,0.60
2008,02,18,22,19,0.60
2008,02,18,22,20,0.60
2008,02,18,22,21,0.60
2008,02,18,22,22,0.60
2008,02,18,22,23,0.50
2008,02,18,22,24,0.50
2008,02,18,22,25,0.50
2008,02,18,22,26,0.50
2008,02,18,22,27,0.40
2008,02,18,22,28,0.40
2008,02,18,22,29,0.50
2008,02,18,22,30,0.50
2008,02,18,22,31,0.50
2008,02,18,22,32,0.50
2008,02,18,22,33,0.50
2008,02,18,22,34,0.50
2008,02,18,22,35,0.50
2008,02,18,22,36,0.40
2008,02,18,22,37,0.40
2008,02,18,22,38,0.40
2008,02,18,22,39,0.40
2008,02,18,22,40,0.50
2008,02,18,22,41,0.50
2008,02,18,22,42,0.50
2008,02,18,22,43,0.50
2008,02,18,22,44,0.50
2008,02,18,22,45,0.50
2008,02,18,22,46,0.50
2008,02,18,22,47,0.60
2008,02,18,22,48,0.60
2008,02,18,22,49,0.60
2008,02,18,22,50,0.70
2008,02,18,22,51,0.70
2008,02,18,22,52,0.70
2008,02,18,22,53,0.80
2008,02,18,22,54,0.80
2008,02,18,22,55,0.80
2008,02,18,22,56,0.80
2008,02,18,22,57,0.80
2008,02,18,22,58,0.80
2008,02,18,22,59,0.80
2008,02,18,23,00,0.80
2008,02,18,23,01,0.80
2008,02,18,23,02,0.90
2008,02,18,23,03,0.80
2008,02,18,23,04,0.80
2008,02,18,23,05,0.80
2008,02,18,23,06,0.80
2008,02,18,23,07,0.80
2008,02,18,23,08,0.80
2008,02,18,23,09,0.80
2008,02,18,23,10,0.80
2008,02,18,23,11,0.80
2008,02,18,23,12,0.80
2008,02,18,23,13,0.80
2008,02,18,23,14,0.70
2008,02,18,23,15,0.80
2008,02,18,23,16,0.80
2008,02,18,23,17,0.80
2008,02,18,23,18,0.80
2008,02,18,23,19,0.80
2008,02,18,23,20,0.80
2008,02,18,23,21,0.80
2008,02,18,23,22,0.80
2008,02,18,23,23,0.80
2008,02,18,23,24,0.80
2008,02,18,23,25,0.80
2008,02,18,23,26,0.80
2008,02,18,23,27,0.80
2008,02,18,23,28,0.80
2008,02,18,23,29,0.80
2008,02,18,23,30,0.80
2008,02,18,23,31,0.70
2008,02,18,23,32,0.70
2008,02,18,23,33,0.70
2008,02,18,23,34,0.70
2008,02,18,23,35,0.70
2008,02,18,23,36,0.70
2008,02,18,23,37,0.70
2008,02,18,23,38,0.60
2008,02,18,23,39,0.60
2008,02,18,23,40,0.60
2008,02,18,23,41,0.60
2008,02,18,23,42,0.60
2008,02,18,23,43,0.70
2008,02,18,23,44,0.70
2008,02,18,23,45,0.70
2008,02,18,23,46,0.60
2008,02,18,23,47,0.60
2008,02,18,23,48,0.60
2008,02,18,23,49,0.60
2008,02,18,23,50,0.60
2008,02,18,23,51,0.60
2008,02,18,23,52,0.60
2008,02,18,23,53,0.60
2008,02,18,23,54,0.60
2008,02,18,23,55,0.60
2008,02,18,23,56,0.60
2008,02,18,23,57,0.60
2008,02,18,23,58,0.60
2008,02,18,23,59,0.60
